Portada
METAR-TAF:

METAR-TAF

Aeroports :

Farmingdale, Nova York, Estats Units d'Amèrica

latitud: 40-44-03N, longitud: 073-25-01W, altitud: 24 m

Observació

L'informe es va fer fa 46 minuts, a les 10:53 UTC
Vent 5 kt del Est/Nord-Est
Temperatura 12°C
Humitat 82%
Pressió 1019 hPa
Visibilitat: 16.1 km
Cel cobert a una alçada de 1400 ft

METAR: KFRG 221053Z AUTO 06005KT 10SM OVC014 12/09 A3008 RMK AO2 SLP184 T01220094

Hora: 07:39 (11:39 UTC)


TAF: manca

Observacions i pronòstics meteorològics de més de 4000 aeroports (METAR i TAF).

Les estacions disponibles són els punts grocs i vermells al mapa.

Posi el ratolí al punt desitjat per veure el nom de l'estació.

Feu clic per veure les observacions i els pronòstics meteorològics.

Per canviar el mapa: feu clic els botons verds amb una creu de color negre per apropar; al botó verd amb un guió per allunyar la imatge; o en les fletxes verdes per a mapes adjacents.


METAR-TAF: